GSAT-6 (40880 NORAD) Tracking and Keplerian Element Data

This shows tracking and keplerian element data for the satellite.

Feedback or suggestion? Click here.




ElementValue
Catalog40880
NameGSAT-6
Epoch Orbit1132
Epoch Day265.76487948
Epoch Year2018
RAAN98.7994
Inclination0.0466
Eccentricity0.0008473
Argument of Perigee150.73
Mean Anonmoly110.3952
Mean Motion1.00271354
Decay Rate-1.78E-06
L11 40880U 15041A 18265.76487948 -.00000178 00000-0 00000-0 0 9993
L22 40880 0.0466 98.7994 0008473 150.7300 110.3952 1.00271354 11323

Live tracking and technical data element details for GSAT-6 (NORAD 40880). GSAT-6 can be tracked NOW for your location showing map with azimuth and elevation plus other details from your city location.

Track the satellite on the map from your city or location and see movement details for azimuth, elevation, latitude, longitude, range, height, and movement on the map or in text.







IsCatalogInMostPopularTable: catalog: 40880, numindb: 93
Update: records affected: 1



GetName: 40880 GSAT-6

Hit Count: updated at: Tue, 25 Sep 2018 15:11:45 GMT